Other Surface Observations
Issued by NWS

Home | Current Version | Previous Version | Text Only | Print | Product List | Glossary On
Versions: 1 2 3 4 5 6 7 8 9 10 11 12 13 14 15 16 17 18 19 20 21 22 23 24 25 26 27 28 29 30 31 32 33 34 35 36 37 38 39 40 41 42 43 44 45 46 47 48 49 50
183
SXUS52 KTAE 260718
OSOTAE
OSOTAE
North Florida/South Alabama/Southwest Georgia Weather Roundup
National Weather Service Tallahassee Florida
300 AM EDT WED JUL 26 2017

Note: "fair" indicates few or no clouds below 12,000 feet with no
significant weather and/or obstructions to visibility.

!FLZ017-115-028-034-025-260800
...North Florida...

CITY           SKY/WX    TMP DP  RH WIND       PRES   REMARKS
TALLAHASSEE    MOCLDY    75  74  96 NW3       30.07S
APALACHICOLA   PTCLDY    76  76 100 CALM      30.07F
PERRY          PTCLDY    75  74  95 CALM      30.08S
CROSS CITY     PTCLDY    76  75  97 CALM      30.12S FOG
JACKSONVILLE   CLOUDY    76  75  97 CALM      30.05S
$$

!FLZ112-006-005-002-011-260800
...Florida Panhandle...

CITY           SKY/WX    TMP DP  RH WIND       PRES   REMARKS
MARIANNA       CLOUDY    74  74 100 CALM      30.06F FOG
BONIFAY        NOT AVBL
PANAMA CITY NW FAIR      75  74  96 CALM      30.06F
TYNDALL AFB    PTCLDY    76  74  93 CALM      30.07F
TYND DRONE APT FAIR      75  73  95 CALM      30.07F
DE FUNIAK SPR  FAIR      73  73  97 CALM      30.09F
EGLIN AFB      CLEAR     76  73  90 CALM      30.08F
DESTIN         PTCLDY    81  75  82 N3        30.07F
HURLBURT       CLEAR     75  75 100 N3        30.06F
CRESTVIEW      CLEAR     73  71  93 CALM      30.10F
PENSACOLA      CLEAR     77  72  84 N3        30.08F
$$

!ALZ063-066-260800
...South Alabama...

CITY           SKY/WX    TMP DP  RH WIND       PRES   REMARKS
DOTHAN         CLEAR     74  74 100 W3        30.12S
OZARK CAIRNS   CLEAR     73  72  95 W3        30.08F
FT RUCKER HELI CLEAR     72  72  98 CALM      30.09S
RUCKER HELI 3  FAIR      73  72  97 CALM      30.08F
RUCKER HELI 2  FAIR      73  72  98 N3        30.08S
FLORALA APT    MOCLDY    72  70  93 NW3       30.11S FOG
ANDALUSIA      FOG       75  72  90 CALM      30.09F VSB 1/2
TROY           MOCLDY    72  72 100 SW5       30.10S
EUFALA         FAIR      76  74  93 CALM      30.07S
MOBILE         PTCLDY    75  73  93 CALM      30.11F
$$

!GAZ120>161-260800
...Southwest and South Central Georgia...

CITY           SKY/WX    TMP DP  RH WIND       PRES   REMARKS
THOMASVILLE    CLOUDY    75  75 100 CALM      30.08S
BAINBRIDGE     PTCLDY    77  77 100 CALM      30.07F
MOODY AFB      CLOUDY    75  73  94 W6        30.05S
VALDOSTA       MOCLDY    73  73 100 S3        30.06F
MOULTRIE       FOG       73  73 100 CALM      30.08S VSB 3/4
BLAKELY        CLOUDY    77  73  88 CALM      30.08S
ALBANY         CLOUDY    77  76  96 CALM      30.08F
TIFTON         CLOUDY    74  74 100 W3        30.08S
FITZGERALD     CLOUDY    76  76 100 CALM      30.09F
CORDELE        FAIR      79  76  91 CALM      30.08F
AMERICUS       FAIR      75  75 100 CALM      30.09F
HOMERVILLE     CLOUDY    73  73 100 CALM      30.07S
$$

!GMZ750-755-770-775-260800
...Coastal and Buoy Obs...

STATION/POSITION TIME  TEMP    WIND        PRES    VSBY  WAVE
                       AIR SEA DIR/SP/G                  HT/PER
                 (UTC) (F)     (DEG/KT/KT) (MB)    (MI)  (FT/S)
KEATON BEACH     0700   76      40/  2/  3 1017.8F
CEDAR KEY        0700   84     290/  7/  8 1018.7F
C TOWER          NOT AVBL
APALACHICOLA BUO 0650   84 86  270/  6/  8 1018.4F         2/ 4
PANAMA CITY BUOY 0650   84 85  290/ 12/ 14 1018.3F         2/ 4
MOBILE BUOY      0700   83 86  270/  8/  8 1019.3
ORANGE BCH AL BU 0650   80 83  320/  8/  8 1018.5F         1/ 3
$$




USA.gov is the U.S. government's official web portal to all federal, state and local government web resources and services.